Location: Stara Lesna
(49.1528°N, 20.2911°E)
Time: 04:41:52
(UTC+02:00)

Cosmos 2369 Rocket - Pass Details

Date: 21 September 2019
Orbit: 830 x 852 km, 71.0° (Epoch: 15 October)

Event Time Altitude Azimuth Distance (km) Brightness Sun altitude
Exits shadow 05:34:29 - 277° (W) 2,541 4.1 -8.7°
Reaches altitude 10° 05:34:44 10° 279° (W) 2,477 4.0 -8.7°
Maximum altitude 05:38:40 19° 323° (NW) 1,928 3.8 -8.1°
Drops below altitude 10° 05:42:36 10° 7° (N) 2,474 4.9 -7.4°
Sets 05:45:50 0° 25° (NNE) 3,408 5.9 -6.9°
